EW1710 Weather Reports


Display with metric or nautical units.
time (UTC)temp
F
wind
direction
speed
MPH
gust
MPH
rain 1hr
in
rain 24hr
in
rain mn
in
humidity
%
barometer
mb
20260905004944 70 108 0.0 0.0 0.00 0.15 0.15 96 1016.7
20260905004439 70 108 0.0 0.0 0.00 0.15 0.15 96 1016.8
20260905003934 71 108 0.0 0.0 0.00 0.15 0.15 96 1016.7
20260905003430 71 108 0.0 0.0 0.00 0.15 0.15 96 1016.7
20260905002926 71 108 0.0 0.0 0.00 0.15 0.15 96 1016.7
20260905002425 71 108 0.0 0.0 0.00 0.15 0.15 95 1016.7
20260905001920 71 107 0.0 0.0 0.00 0.15 0.15 95 1016.8
20260905001415 72 28 0.0 1.0 0.00 0.15 0.15 95 1016.9
20260905000909 72 145 0.0 0.0 0.00 0.15 0.15 95 1016.5
20260905000405 72 145 0.0 0.0 0.00 0.15 0.15 94 1017.0
20260904235900 73 168 0.0 0.0 0.00 0.15 0.15 94 1016.7
20260904235355 73 306 0.0 0.0 0.00 0.15 0.15 94 1016.6
20260904234850 73 306 0.0 0.0 0.00 0.15 0.15 94 1016.5
20260904234345 74 306 0.0 0.0 0.00 0.15 0.15 94 1016.9
20260904233841 74 307 0.0 0.0 0.00 0.15 0.15 93 1016.9
20260904233336 74 307 0.0 0.0 0.00 0.15 0.15 93 1016.8
20260904232833 74 334 0.0 0.0 0.00 0.15 0.15 93 1016.9
20260904232329 75 334 0.0 0.0 0.00 0.15 0.15 93 1017.0
20260904231824 75 333 0.0 0.0 0.00 0.15 0.15 92 1016.9
20260904231319 75 192 1.0 1.0 0.00 0.15 0.15 91 1016.6
20260904230815 75 149 1.0 1.0 0.00 0.15 0.15 91 1016.6
20260904230313 75 81 0.0 0.0 0.00 0.15 0.15 90 1017.1
20260904225808 76 81 0.0 0.0 0.00 0.15 0.15 91 1016.9
20260904225307 76 79 0.0 0.0 0.00 0.15 0.15 90 1017.1
20260904224806 76 79 0.0 0.0 0.00 0.15 0.15 89 1017.0
20260904224302 76 79 0.0 0.0 0.00 0.15 0.15 88 1016.8
20260904223801 76 79 0.0 0.0 0.00 0.15 0.15 88 1016.8
20260904223301 77 329 0.0 0.0 0.00 0.15 0.15 87 1016.9
20260904222758 77 329 0.0 0.0 0.00 0.15 0.15 86 1016.5
20260904222252 77 329 0.0 0.0 0.00 0.15 0.15 86 1016.6
20260904221747 77 329 0.0 0.0 0.00 0.15 0.15 84 1016.2
20260904221247 77 329 0.0 0.0 0.00 0.15 0.15 84 1016.3
20260904220742 77 329 0.0 0.0 0.00 0.15 0.15 85 1016.2
20260904220236 77 329 0.0 0.0 0.00 0.15 0.15 85 1016.1
20260904215731 77 329 0.0 0.0 0.00 0.15 0.15 85 1016.1
20260904215221 77 329 0.0 1.0 0.00 0.15 0.15 84 1015.9
20260904214716 78 65 0.0 0.0 0.00 0.15 0.15 83 1016.0
20260904214212 78 37 0.0 0.0 0.00 0.15 0.15 82 1015.7
20260904213709 78 36 0.0 0.0 0.00 0.15 0.15 80 1016.0
20260904213201 78 345 1.0 1.0 0.00 0.15 0.15 79 1015.5
20260904212700 78 84 0.0 0.0 0.00 0.15 0.15 81 1015.7
20260904212155 78 134 0.0 0.0 0.00 0.15 0.15 82 1015.6
20260904211655 78 166 0.0 0.0 0.00 0.15 0.15 81 1015.6
20260904211151 78 117 0.0 0.0 0.00 0.15 0.15 81 1015.3
20260904210651 78 117 0.0 0.0 0.00 0.15 0.15 82 1015.8
20260904210146 78 157 0.0 0.0 0.00 0.15 0.15 82 1015.4
20260904205642 78 164 1.0 1.0 0.00 0.15 0.15 78 1015.1
20260904205138 78 304 2.0 2.0 0.00 0.15 0.15 80 1015.1
20260904204634 78 162 2.0 2.0 0.00 0.15 0.15 82 1015.0
20260904204130 78 151 0.0 0.0 0.00 0.15 0.15 79 1014.9
20260904203626 78 116 0.0 0.0 0.00 0.15 0.15 79 1014.9
20260904203122 78 181 0.0 0.0 0.00 0.15 0.15 78 1015.1
20260904202618 78 135 0.0 0.0 0.00 0.15 0.15 79 1015.0
20260904202114 78 156 1.0 1.0 0.00 0.15 0.15 79 1015.2
20260904201609 79 152 3.0 2.0 0.00 0.15 0.15 74 1015.4
20260904201103 79 178 1.0 1.0 0.00 0.15 0.15 75 1015.5
20260904200602 79 330 2.0 2.0 0.00 0.15 0.15 74 1015.8
20260904200057 79 295 1.0 1.0 0.00 0.15 0.15 77 1016.1
20260904195556 79 123 1.0 1.0 0.00 0.15 0.15 76 1016.0
20260904195050 79 145 2.0 2.0 0.00 0.15 0.15 77 1016.3
20260904194545 79 119 0.0 0.0 0.00 0.15 0.15 78 1016.3
20260904194039 78 89 1.0 1.0 0.00 0.15 0.15 79 1016.6
20260904193534 78 180 1.0 1.0 0.00 0.15 0.15 82 1016.6
20260904193031 77 145 1.0 1.0 0.00 0.15 0.15 82 1016.9
20260904192529 77 161 1.0 1.0 0.00 0.15 0.15 80 1016.5
20260904192026 76 111 1.0 1.0 0.00 0.15 0.15 82 1016.6
20260904191522 76 154 1.0 1.0 0.00 0.15 0.15 82 1016.9
20260904191019 76 107 1.0 2.0 0.00 0.15 0.15 85 1017.2
20260904190514 75 152 1.0 1.0 0.00 0.15 0.15 85 1017.1
20260904190010 74 94 0.0 0.0 0.00 0.15 0.15 88 1017.1
20260904185506 74 124 0.0 0.0 0.00 0.15 0.15 90 1017.3
20260904185000 74 55 1.0 1.0 0.00 0.15 0.15 91 1016.9
20260904184455 73 172 1.0 1.0 0.00 0.15 0.15 91 1016.8
20260904183950 73 108 0.0 1.0 0.00 0.15 0.15 92 1017.1
20260904183445 73 145 0.0 0.0 0.00 0.15 0.15 94 1017.2
20260904182940 73 164 1.0 1.0 0.00 0.15 0.15 93 1016.8
20260904182436 73 162 0.0 0.0 0.00 0.15 0.15 93 1017.1
20260904181930 73 63 0.0 0.0 0.00 0.15 0.15 93 1017.7
20260904181425 73 70 1.0 1.0 0.00 0.15 0.15 92 1017.4
20260904180920 73 3 0.0 0.0 0.00 0.15 0.15 91 1017.6
20260904180415 73 342 2.0 2.0 0.00 0.15 0.15 91 1018.2
20260904175915 74 245 1.0 1.0 0.00 0.15 0.15 91 1018.4
20260904175414 74 333 2.0 2.0 0.00 0.15 0.15 91 1019.0
20260904174913 74 181 2.0 2.0 0.00 0.15 0.15 90 1019.1
20260904174409 75 326 2.0 2.0 0.00 0.15 0.15 90 1018.9
20260904173905 75 39 1.0 1.0 0.00 0.15 0.15 90 1019.0
20260904173400 74 26 1.0 1.0 0.00 0.15 0.15 92 1019.1
20260904172856 74 2 2.0 2.0 0.00 0.15 0.15 92 1019.1
20260904172355 74 265 0.0 1.0 0.00 0.15 0.15 93 1019.2
20260904171850 73 312 3.0 6.0 0.00 0.15 0.15 94 1019.1
20260904171345 73 291 3.0 3.0 0.00 0.15 0.15 93 1019.1
20260904170842 73 262 2.0 2.0 0.00 0.15 0.15 94 1019.1
20260904170337 73 307 2.0 1.0 0.00 0.15 0.15 93 1018.9
20260904165832 73 180 2.0 2.0 0.00 0.15 0.15 95 1019.1
20260904165325 73 297 2.0 2.0 0.00 0.15 0.15 95 1018.8
20260904164821 73 218 1.0 1.0 0.05 0.15 0.15 95 1019.2
20260904164314 72 223 1.0 2.0 0.05 0.15 0.15 95 1019.4
20260904163811 72 355 3.0 3.0 0.07 0.14 0.14 94 1019.0
20260904163306 72 83 1.0 2.0 0.07 0.14 0.14 94 1019.0
20260904162805 72 41 2.0 2.0 0.00 0.13 0.13 94 1019.3
20260904162301 73 319 3.0 3.0 0.00 0.13 0.13 94 1019.3
20260904161755 73 33 0.0 1.0 0.00 0.13 0.13 94 1019.4
20260904161250 73 263 2.0 2.0 0.00 0.13 0.13 94 1019.2
20260904160746 73 27 2.0 2.0 0.00 0.13 0.13 94 1019.4
20260904160241 73 293 3.0 5.0 0.07 0.13 0.13 95 1019.6
20260904155741 73 294 3.0 5.0 0.07 0.13 0.13 95 1019.4
20260904155240 73 145 1.0 1.0 0.00 0.12 0.12 97 1019.4
20260904154738 73 353 2.0 2.0 0.00 0.12 0.12 98 1019.5
20260904154234 73 304 3.0 3.0 0.00 0.12 0.12 98 1019.2
20260904153730 72 10 1.0 1.0 0.00 0.12 0.12 98 1019.0
20260904153225 71 313 2.0 2.0 0.00 0.12 0.12 98 1018.7
20260904152721 71 44 1.0 1.0 0.00 0.12 0.12 98 1018.2
20260904152216 71 86 1.0 1.0 0.00 0.12 0.12 98 1018.1
20260904151711 71 159 2.0 2.0 0.00 0.12 0.12 98 1017.8
20260904151210 71 166 1.0 2.0 0.00 0.12 0.12 98 1018.0
20260904150706 71 180 1.0 1.0 0.00 0.12 0.12 98 1017.9
20260904150201 71 91 2.0 2.0 0.00 0.12 0.12 98 1018.1
20260904145700 70 175 1.0 1.0 0.00 0.12 0.12 98 1018.5
20260904145155 70 94 0.0 0.0 0.00 0.12 0.12 98 1018.7
20260904144650 70 94 0.0 0.0 0.05 0.12 0.12 98 1018.7
20260904144146 69 135 0.0 0.0 0.17 0.12 0.12 98 1018.6
20260904143642 69 105 0.0 0.0 0.19 0.11 0.11 98 1018.6
20260904143138 69 117 0.0 0.0 0.12 0.09 0.09 98 1018.6
20260904142634 69 118 0.0 0.0 0.05 0.08 0.08 98 1018.6
20260904142129 69 89 0.0 0.0 0.12 0.08 0.08 98 1018.7
20260904141624 69 168 0.0 0.0 0.19 0.07 0.07 98 1018.9
20260904141120 69 170 0.0 0.0 0.07 0.05 0.05 98 1018.9
20260904140615 69 172 1.0 1.0 0.05 0.04 0.04 98 1018.9
20260904140109 69 134 1.0 1.0 0.05 0.04 0.04 98 1018.8
20260904135608 69 80 0.0 0.0 0.07 0.03 0.03 98 1018.9
20260904135105 69 140 0.0 0.0 0.12 0.03 0.03 98 1019.1
20260904134600 69 139 0.0 0.0 0.12 0.02 0.02 98 1019.0
20260904134054 69 115 0.0 0.0 0.07 0.01 0.01 98 1019.0
20260904133549 69 111 0.0 0.0 0.00 0.00 0.00 98 1019.0
20260904133045 69 31 0.0 0.0 0.00 0.00 0.00 98 1019.3
20260904132545 69 108 0.0 0.0 0.00 0.00 0.00 98 1018.7
20260904132040 69 54 0.0 0.0 0.00 0.00 0.00 98 1018.8
20260904131539 69 38 1.0 1.0 0.00 0.00 0.00 98 1018.6
20260904131035 70 334 1.0 1.0 0.00 0.00 0.00 98 1018.5
20260904130534 70 125 1.0 1.0 0.00 0.00 0.00 98 1018.3
20260904130029 70 97 0.0 0.0 0.00 0.00 0.00 98 1018.4
20260904125526 69 97 0.0 0.0 0.00 0.00 0.00 98 1018.3
20260904125020 69 103 0.0 0.0 0.00 0.00 0.00 98 1018.3
20260904124515 69 114 0.0 0.0 0.00 0.00 0.00 98 1018.5
20260904124011 69 136 0.0 0.0 0.00 0.00 0.00 98 1018.3
20260904123510 69 136 0.0 0.0 0.00 0.00 0.00 98 1018.6
20260904123006 69 136 0.0 0.0 0.00 0.00 0.00 98 1018.4
20260904122501 69 136 0.0 0.0 0.00 0.00 0.00 98 1018.0
20260904121956 68 136 0.0 0.0 0.00 0.00 0.00 98 1018.1
20260904121452 68 136 0.0 0.0 0.00 0.00 0.00 98 1017.8
20260904120948 68 136 1.0 1.0 0.00 0.00 0.00 98 1017.9
20260904120444 68 137 0.0 0.0 0.00 0.00 0.00 98 1017.9
20260904115938 68 136 0.0 0.0 0.00 0.00 0.00 98 1017.8
20260904115434 68 136 1.0 1.0 0.00 0.00 0.00 98 1018.1
20260904114933 68 136 0.0 0.0 0.00 0.00 0.00 98 1018.0
20260904114433 68 136 1.0 1.0 0.00 0.00 0.00 98 1018.1
20260904113929 67 135 0.0 0.0 0.00 0.00 0.00 98 1018.1
20260904113428 67 135 0.0 0.0 0.00 0.00 0.00 98 1017.9
20260904112927 67 135 0.0 0.0 0.00 0.00 0.00 98 1017.9
20260904112424 67 135 0.0 0.0 0.00 0.00 0.00 98 1017.9
20260904111919 67 135 0.0 0.0 0.00 0.00 0.00 98 1017.9
20260904111414 67 135 0.0 0.0 0.00 0.00 0.00 98 1017.7
20260904110910 67 135 0.0 0.0 0.00 0.00 0.00 98 1017.6
20260904110409 67 135 0.0 0.0 0.00 0.00 0.00 98 1017.9
20260904105904 67 136 1.0 1.0 0.00 0.00 0.00 98 1017.5
20260904105359 67 136 0.0 0.0 0.00 0.00 0.00 98 1017.6
20260904104854 67 135 0.0 0.0 0.00 0.00 0.00 98 1017.7
20260904104349 67 124 0.0 0.0 0.00 0.00 0.00 98 1017.5
20260904103847 67 124 0.0 0.0 0.00 0.00 0.00 98 1017.6
20260904103346 67 124 0.0 0.0 0.00 0.00 0.00 98 1017.6
20260904102842 67 124 0.0 0.0 0.00 0.00 0.00 98 1017.4
20260904102337 66 124 0.0 0.0 0.00 0.00 0.00 98 1017.7
20260904101833 66 124 0.0 0.0 0.00 0.00 0.00 98 1017.4
20260904101330 66 138 0.0 0.0 0.00 0.00 0.00 98 1017.2
20260904100825 66 152 0.0 0.0 0.00 0.00 0.00 98 1017.2
20260904100321 66 135 0.0 0.0 0.00 0.00 0.00 98 1017.4
20260904095815 66 135 0.0 0.0 0.00 0.00 0.00 98 1017.4
20260904095310 66 136 0.0 0.0 0.00 0.00 0.00 98 1017.5
20260904094805 66 136 0.0 0.0 0.00 0.00 0.00 98 1018.0
20260904094301 66 136 0.0 0.0 0.00 0.00 0.00 98 1017.9
20260904093757 66 136 0.0 0.0 0.00 0.00 0.00 98 1018.0
20260904093256 66 136 0.0 0.0 0.00 0.00 0.00 98 1017.9
20260904092752 66 136 0.0 0.0 0.00 0.00 0.00 98 1017.7
20260904092248 66 136 0.0 0.0 0.00 0.00 0.00 98 1017.7
20260904091744 66 136 0.0 0.0 0.00 0.00 0.00 98 1017.4
20260904091238 66 136 0.0 0.0 0.00 0.00 0.00 98 1017.3
20260904090734 66 136 0.0 0.0 0.00 0.00 0.00 98 1017.5
20260904090230 66 136 0.0 0.0 0.00 0.00 0.00 98 1017.4
20260904085724 66 136 0.0 0.0 0.00 0.00 0.00 98 1017.3
20260904085219 67 136 0.0 0.0 0.00 0.00 0.00 98 1017.4
20260904084714 67 136 1.0 1.0 0.00 0.00 0.00 98 1017.5
20260904084210 67 136 0.0 0.0 0.00 0.00 0.00 98 1017.5
20260904083707 67 136 0.0 0.0 0.00 0.00 0.00 98 1017.2
20260904083203 67 136 0.0 0.0 0.00 0.00 0.00 98 1017.2
20260904082657 67 135 1.0 1.0 0.00 0.00 0.00 98 1017.3
20260904082152 67 135 0.0 0.0 0.00 0.00 0.00 98 1017.3
20260904081643 67 135 0.0 0.0 0.00 0.00 0.00 98 1017.3
20260904081138 67 136 0.0 0.0 0.00 0.00 0.00 98 1017.5
20260904080634 67 136 0.0 0.0 0.00 0.00 0.00 98 1017.5
20260904080129 67 135 0.0 0.0 0.00 0.00 0.00 98 1017.6
20260904075625 67 135 0.0 0.0 0.00 0.00 0.00 98 1017.5
20260904075125 67 136 0.0 0.0 0.00 0.00 0.00 98 1017.5
20260904074619 67 135 0.0 0.0 0.00 0.00 0.00 98 1017.6
20260904074113 68 135 0.0 0.0 0.00 0.00 0.00 98 1017.8
20260904073608 68 135 0.0 0.0 0.00 0.00 0.00 98 1017.7
20260904073104 68 135 0.0 0.0 0.00 0.00 0.00 98 1017.8
20260904072559 68 135 0.0 0.0 0.00 0.00 0.00 98 1017.7
20260904072055 68 135 0.0 0.0 0.00 0.00 0.00 98 1017.9
20260904071550 68 135 0.0 0.0 0.00 0.00 0.00 98 1017.8
20260904071045 68 135 0.0 0.0 0.00 0.00 0.00 98 1017.6
20260904070544 68 135 0.0 0.0 0.00 0.00 0.00 98 1017.8
20260904070039 68 136 0.0 0.0 0.00 0.00 0.00 98 1017.8
20260904065534 68 136 1.0 1.0 0.00 0.00 0.00 97 1017.9
20260904065030 68 135 0.0 0.0 0.00 0.00 0.00 97 1017.8
20260904064526 68 135 0.0 0.0 0.00 0.00 0.00 97 1017.6
20260904064021 68 135 0.0 0.0 0.00 0.00 0.00 97 1017.7
20260904063517 68 135 0.0 0.0 0.00 0.00 0.00 97 1017.6
20260904063012 68 136 0.0 0.0 0.00 0.00 0.00 97 1017.7
20260904062508 68 136 0.0 0.0 0.00 0.00 0.00 97 1018.0
20260904062004 68 135 1.0 0.0 0.00 0.00 0.00 97 1018.0
20260904061500 68 136 0.0 0.0 0.00 0.00 0.00 97 1017.7
20260904060955 68 135 0.0 0.0 0.00 0.00 0.00 97 1017.9
20260904060451 68 167 0.0 0.0 0.00 0.00 0.00 97 1017.9
20260904055947 68 168 0.0 0.0 0.00 0.00 0.00 97 1017.5
20260904055442 68 168 0.0 0.0 0.00 0.00 0.00 97 1017.9
20260904054938 68 168 0.0 0.0 0.00 0.00 0.00 97 1017.9
20260904054433 68 199 0.0 0.0 0.00 0.00 0.00 97 1017.7
20260904053929 68 225 0.0 0.0 0.00 0.00 0.00 97 1017.8
20260904053428 68 225 0.0 0.0 0.00 0.00 0.00 97 1017.9
20260904052924 68 225 0.0 0.0 0.00 0.00 0.00 97 1017.6
20260904052420 68 225 0.0 0.0 0.00 0.00 0.00 97 1017.5
20260904051916 68 225 0.0 0.0 0.00 0.00 0.00 97 1017.7
20260904051412 68 225 0.0 0.0 0.00 0.00 0.00 97 1017.7
20260904050906 68 227 1.0 1.0 0.00 0.00 0.00 97 1017.7
20260904050403 68 104 0.0 0.0 0.00 0.00 0.00 97 1017.7
20260904045903 67 133 0.0 0.0 0.00 0.00 0.00 96 1017.6
20260904045358 68 133 0.0 0.0 0.00 0.00 0.00 96 1017.5
20260904044857 68 134 0.0 0.0 0.00 0.00 0.00 96 1017.5
20260904044354 68 133 0.0 0.0 0.00 0.00 0.00 96 1017.4
20260904043852 68 133 0.0 0.0 0.00 0.00 0.00 96 1017.5
20260904043347 68 133 0.0 0.0 0.00 0.00 0.00 96 1017.5
20260904042841 68 114 0.0 0.0 0.00 0.00 0.00 96 1017.4
20260904042337 68 114 0.0 0.0 0.00 0.00 0.00 96 1017.6
20260904041832 68 101 0.0 0.0 0.00 0.00 0.00 96 1017.4
20260904041328 68 118 0.0 0.0 0.00 0.00 0.00 96 1017.3
20260904040824 69 80 1.0 2.0 0.00 0.00 0.00 96 1017.2
20260904040319 69 93 0.0 0.0 0.00 0.00 0.00 96 1017.1
20260904035815 69 51 3.0 6.0 0.00 0.96 0.96 96 1017.1
20260904035311 68 158 1.0 1.0 0.00 0.96 0.96 96 1017.3
20260904034809 68 106 2.0 3.0 0.00 0.96 0.96 97 1017.3
20260904034306 68 67 1.0 1.0 0.00 0.96 0.96 96 1017.0
20260904033801 68 152 2.0 2.0 0.07 0.96 0.96 96 1016.9
20260904033258 68 161 3.0 6.0 0.35 0.96 0.96 96 1016.9
20260904032753 68 179 2.0 2.0 0.59 0.95 0.95 96 1017.6
20260904032252 68 181 1.0 1.0 0.35 0.90 0.90 96 1017.7
20260904031741 68 167 0.0 0.0 0.05 0.85 0.85 96 1018.2
20260904031236 68 4 2.0 2.0 0.00 0.84 0.84 96 1017.7
20260904030726 68 100 0.0 0.0 0.00 0.84 0.84 96 1017.4
20260904030222 68 103 0.0 0.0 0.00 0.84 0.84 96 1017.1
20260904025719 68 166 1.0 1.0 0.00 0.84 0.84 96 1016.9
20260904025213 68 169 1.0 1.0 0.00 0.84 0.84 96 1017.2
20260904024709 68 168 2.0 2.0 0.00 0.84 0.84 96 1017.1
20260904024204 68 180 1.0 1.0 0.00 0.84 0.84 96 1017.2
20260904023700 68 73 2.0 3.0 0.00 0.84 0.84 96 1017.3
20260904023155 68 136 1.0 1.0 0.00 0.84 0.84 96 1017.1
20260904022649 68 137 0.0 0.0 0.00 0.84 0.84 96 1017.1
20260904022146 68 118 2.0 2.0 0.00 0.84 0.84 96 1017.2
20260904021642 68 100 3.0 3.0 0.00 0.84 0.84 96 1017.2
20260904021136 68 103 1.0 1.0 0.00 0.84 0.84 96 1016.9
20260904020633 68 185 1.0 1.0 0.00 0.84 0.84 96 1016.7
20260904020127 68 176 2.0 5.0 0.00 0.84 0.84 96 1016.7
20260904015626 68 90 1.0 1.0 0.00 0.84 0.84 96 1016.9
20260904015125 68 157 1.0 1.0 0.00 0.84 0.84 96 1016.8
20260904014625 68 176 3.0 5.0 0.00 0.84 0.84 96 1016.2
20260904014120 68 168 2.0 2.0 0.00 0.84 0.84 96 1016.6
20260904013617 68 155 1.0 1.0 0.00 0.84 0.84 96 1016.6
20260904013113 68 178 3.0 5.0 0.00 0.84 0.84 96 1016.8
20260904012608 68 100 4.0 6.0 0.00 0.84 0.84 96 1016.8
20260904012107 68 90 2.0 3.0 0.00 0.84 0.84 96 1016.9
20260904011606 68 172 6.0 7.0 0.00 0.84 0.84 96 1016.7
20260904011102 68 134 1.0 2.0 0.00 0.84 0.84 96 1016.9
20260904010558 68 177 1.0 2.0 0.00 0.84 0.84 96 1016.8
20260904010054 68 151 3.0 3.0 0.00 0.84 0.84 96 1016.8
20260904005554 68 172 3.0 2.0 0.00 0.84 0.84 96 1017.0